Capitán FAP Renán Elías Olivera International Airport
SPSO : now visible

Airfield :











YOU CAN JOIN US ON...

 
LOGIN :

Register | Disclaimer

   EN    FR    IT 

 









Legend :    VFR   Marginal VFR   IFR   Intensive IFR   Very Intensive IFR
Visi :
Ceiling :
>= 8 km
>= 3000ft
5 to 8 km
1000 to 3000 ft
1500m to 5 km
500 to 1000 ft
800 to 1500m
200 to 500 ft
< 800m
< 200 ft
Symbols :   Thunderstorms  Fog  Heavy snow  Heavy precipitations  Wind > 20 kt






- Airport Elevation : 39 ft
- IATA code : PIO


SPSO - Capitán FAP Renán Elías Olivera International

CURRENT METAR :
  • 221700Z 23012KT CAVOK 22/14 Q1012 RMK BIRD HAZARD RWY 22/04 PP000

EXPIRED METARs :
  • 221600Z 23012KT CAVOK 21/14 Q1013 RMK BIRD HAZARD RWY 22/04 PP000
  • 221500Z 23011KT CAVOK 21/14 Q1013 RMK BIRD HAZARD RWY 22/04 PP000

TAF SPSO
Valid from the 22 at 06:00 until the 23 at 06:00 UTC


220500Z 2206/2306 19007KT 7000 FEW007 TX22/2219Z TN15/2211Z
TEMPO 2210/2212 14005KT 4000 BR FU BKN010
BECMG 2213/2215 25008KT CAVOK
TEMPO 2219/2223 21018KT
SPIM FIR / South America



MET'MAP, your aeronautical weather chart ! - Copyright ORBIFLY December 2007 - Disclaimer

ORBIFLY MET'MAP TEAM :

Programming & Development : Alexandra Zaïnal
Concept & original design : Baudouin d'Aumeries
Assistance for programming : Marc-Olivier Méhu
Technical & hardware support : Manuel Goepfert

Contact : metmap@orbifly.com




SOURCES & CREDITS :

   NOAA       Earth
Advisory